Location: Castle
(40.7167°S, 175.9500°E)
Time: 04:32:30
(UTC+00:00)

CORIOLIS - Pass Details

Date: 04 August 2024
Orbit: 817 x 836 km, 98.7° (Epoch: 07 September)

Event Time Altitude Azimuth Distance (km) Brightness Sun altitude
Rises 18:13:55 0° 358° (N) 3,377 7.5 -12.5°
Reaches altitude 10° 18:16:22 10° 351° (N) 2,452 6.7 -12.1°
Maximum altitude 18:21:34 45° 279° (W) 1,136 4.5 -11.1°
Drops below altitude 10° 18:26:50 10° 206° (SSW) 2,477 6.3 -10.1°
Sets 18:29:19 0° 200° (SSW) 3,417 7.0 -9.7°
